Time,TemperatureF,DewpointF,PressureIn,WindDirection,WindDirectionDegrees,WindSpeedMPH,WindSpeedGustMPH,Humidity,HourlyPrecipIn,Conditions,Clouds,dailyrainin,SoftwareType,DateUTC
2013-10-22 00:00:00,51.8,40.4,29.58,WSW,246,1.0,2.0,65,0.00,,,0.00,Wunderground v.1.15,2013-10-22 04:00:00,
2013-10-22 00:05:00,51.8,40.4,29.58,WSW,247,1.0,2.0,65,0.00,,,0.00,Wunderground v.1.15,2013-10-22 04:05:00,
2013-10-22 00:10:00,51.6,40.2,29.58,North,351,0.0,0.0,65,0.00,,,0.00,Wunderground v.1.15,2013-10-22 04:10:00,
2013-10-22 00:15:00,51.5,40.1,29.58,North,351,0.0,0.0,65,0.00,,,0.00,Wunderground v.1.15,2013-10-22 04:15:00,
2013-10-22 00:20:00,51.4,40.4,29.58,North,355,0.0,2.0,66,0.00,,,0.00,Wunderground v.1.15,2013-10-22 04:20:00,
2013-10-22 00:30:00,50.9,40.3,29.58,WNW,294,1.0,1.0,67,0.00,,,0.00,Wunderground v.1.15,2013-10-22 04:30:00,
2013-10-22 00:40:00,51.0,39.6,29.58,South,181,1.0,3.0,65,0.00,,,0.00,Wunderground v.1.15,2013-10-22 04:40:00,
2013-10-22 00:45:00,51.0,40.4,29.58,South,188,2.0,3.0,67,0.00,,,0.00,Wunderground v.1.15,2013-10-22 04:45:00,
2013-10-22 00:50:00,51.1,40.1,29.57,SSW,194,2.0,2.0,66,0.00,,,0.00,Wunderground v.1.15,2013-10-22 04:50:00,
2013-10-22 01:00:00,51.2,40.2,29.57,South,173,4.0,4.0,66,0.00,,,0.00,Wunderground v.1.15,2013-10-22 05:00:00,
2013-10-22 01:10:00,50.9,39.9,29.57,SE,134,3.0,3.0,66,0.00,,,0.00,Wunderground v.1.15,2013-10-22 05:10:00,
2013-10-22 01:20:00,50.6,40.4,29.57,South,180,2.0,2.0,68,0.00,,,0.00,Wunderground v.1.15,2013-10-22 05:20:00,
2013-10-22 01:25:00,50.4,39.5,29.57,South,185,2.0,2.0,66,0.00,,,0.00,Wunderground v.1.15,2013-10-22 05:25:00,
2013-10-22 01:30:00,50.4,39.9,29.57,SW,232,3.0,5.0,67,0.00,,,0.00,Wunderground v.1.15,2013-10-22 05:30:00,
2013-10-22 01:35:00,50.4,39.9,29.57,South,184,4.0,5.0,67,0.00,,,0.00,Wunderground v.1.15,2013-10-22 05:35:00,
2013-10-22 01:40:00,50.3,39.8,29.57,SE,146,4.0,4.0,67,0.00,,,0.00,Wunderground v.1.15,2013-10-22 05:40:00,
2013-10-22 01:50:00,50.2,39.7,29.57,South,175,4.0,4.0,67,0.00,,,0.00,Wunderground v.1.15,2013-10-22 05:50:00,
2013-10-22 02:00:00,50.1,39.2,29.56,SSE,167,4.0,4.0,66,0.00,,,0.00,Wunderground v.1.15,2013-10-22 06:00:00,
2013-10-22 02:10:00,50.0,39.5,29.56,SE,134,1.0,2.0,67,0.00,,,0.00,Wunderground v.1.15,2013-10-22 06:10:00,
2013-10-22 02:15:00,49.8,39.3,29.56,SSE,165,1.0,2.0,67,0.00,,,0.00,Wunderground v.1.15,2013-10-22 06:15:00,
2013-10-22 02:20:00,49.6,39.5,29.56,ESE,115,1.0,1.0,68,0.00,,,0.00,Wunderground v.1.15,2013-10-22 06:20:00,
2013-10-22 02:30:00,49.4,39.3,29.55,SSE,163,1.0,1.0,68,0.00,,,0.00,Wunderground v.1.15,2013-10-22 06:30:00,
2013-10-22 02:40:00,49.2,39.5,29.55,SSE,165,0.0,2.0,69,0.00,,,0.00,Wunderground v.1.15,2013-10-22 06:40:00,
2013-10-22 02:50:00,49.1,39.4,29.55,SE,145,1.0,1.0,69,0.00,,,0.00,Wunderground v.1.15,2013-10-22 06:50:00,
2013-10-22 03:00:00,48.9,39.5,29.54,South,176,1.0,1.0,70,0.00,,,0.00,Wunderground v.1.15,2013-10-22 07:00:00,
2013-10-22 03:10:00,48.7,39.4,29.54,SSE,148,2.0,2.0,70,0.00,,,0.00,Wunderground v.1.15,2013-10-22 07:10:00,
2013-10-22 03:20:00,48.7,39.4,29.54,SSE,148,0.0,0.0,70,0.00,,,0.00,Wunderground v.1.15,2013-10-22 07:20:00,
2013-10-22 03:30:00,48.5,39.5,29.53,SW,231,0.0,1.0,71,0.00,,,0.00,Wunderground v.1.15,2013-10-22 07:30:00,
2013-10-22 03:40:00,48.5,39.5,29.53,SSW,204,1.0,1.0,71,0.00,,,0.00,Wunderground v.1.15,2013-10-22 07:40:00,
2013-10-22 03:50:00,48.3,39.7,29.52,SSW,192,1.0,1.0,72,0.00,,,0.00,Wunderground v.1.15,2013-10-22 07:50:00,
2013-10-22 04:00:00,48.2,39.6,29.52,South,178,1.0,1.0,72,0.00,,,0.00,Wunderground v.1.15,2013-10-22 08:00:00,
2013-10-22 04:05:00,48.0,39.8,29.52,South,173,1.0,6.0,73,0.00,,,0.00,Wunderground v.1.15,2013-10-22 08:05:00,
2013-10-22 04:10:00,47.9,39.7,29.52,South,181,1.0,2.0,73,0.00,,,0.00,Wunderground v.1.15,2013-10-22 08:10:00,
2013-10-22 04:20:00,47.8,39.6,29.52,SW,219,1.0,1.0,73,0.00,,,0.00,Wunderground v.1.15,2013-10-22 08:20:00,
2013-10-22 04:30:00,47.7,39.5,29.52,SW,221,1.0,1.0,73,0.00,,,0.00,Wunderground v.1.15,2013-10-22 08:30:00,
2013-10-22 04:35:00,47.8,39.6,29.52,SSW,198,2.0,2.0,73,0.00,,,0.00,Wunderground v.1.15,2013-10-22 08:35:00,
2013-10-22 04:40:00,47.7,39.5,29.52,South,178,1.0,5.0,73,0.00,,,0.00,Wunderground v.1.15,2013-10-22 08:40:00,
2013-10-22 04:50:00,47.7,39.5,29.52,South,175,2.0,2.0,73,0.00,,,0.00,Wunderground v.1.15,2013-10-22 08:50:00,
2013-10-22 05:00:00,47.4,39.9,29.51,SSW,208,1.0,3.0,75,0.00,,,0.00,Wunderground v.1.15,2013-10-22 09:00:00,
2013-10-22 05:10:00,47.2,40.0,29.51,South,173,2.0,2.0,76,0.00,,,0.00,Wunderground v.1.15,2013-10-22 09:10:00,
2013-10-22 05:20:00,47.2,39.7,29.50,SSW,205,2.0,2.0,75,0.00,,,0.00,Wunderground v.1.15,2013-10-22 09:20:00,
2013-10-22 05:30:00,47.1,39.9,29.50,SSW,199,1.0,1.0,76,0.00,,,0.00,Wunderground v.1.15,2013-10-22 09:30:00,
2013-10-22 05:35:00,47.0,39.8,29.50,South,178,1.0,1.0,76,0.00,,,0.00,Wunderground v.1.15,2013-10-22 09:35:00,
2013-10-22 05:40:00,47.0,39.8,29.50,SSW,194,1.0,1.0,76,0.00,,,0.00,Wunderground v.1.15,2013-10-22 09:40:00,
2013-10-22 05:45:00,46.9,39.7,29.50,SSW,193,1.0,1.0,76,0.00,,,0.00,Wunderground v.1.15,2013-10-22 09:45:00,
2013-10-22 05:55:00,46.8,39.6,29.49,SSW,193,0.0,0.0,76,0.00,,,0.00,Wunderground v.1.15,2013-10-22 09:55:00,
2013-10-22 06:05:00,46.7,39.9,29.49,SSW,193,0.0,0.0,77,0.00,,,0.00,Wunderground v.1.15,2013-10-22 10:05:00,
2013-10-22 06:15:00,46.5,40.0,29.49,South,185,0.0,3.0,78,0.00,,,0.00,Wunderground v.1.15,2013-10-22 10:15:00,
2013-10-22 06:20:00,46.5,40.3,29.49,South,184,1.0,1.0,79,0.00,,,0.00,Wunderground v.1.15,2013-10-22 10:20:00,
2013-10-22 06:30:00,46.5,40.0,29.48,South,186,1.0,1.0,78,0.00,,,0.00,Wunderground v.1.15,2013-10-22 10:30:00,
2013-10-22 06:40:00,46.5,40.3,29.47,South,188,1.0,3.0,79,0.00,,,0.00,Wunderground v.1.15,2013-10-22 10:40:00,
2013-10-22 06:50:00,46.5,40.3,29.47,SSW,197,3.0,6.0,79,0.00,,,0.00,Wunderground v.1.15,2013-10-22 10:50:00,
2013-10-22 07:00:00,46.7,40.5,29.47,South,173,3.0,6.0,79,0.00,,,0.00,Wunderground v.1.15,2013-10-22 11:00:00,
2013-10-22 07:10:00,46.7,40.5,29.47,South,171,3.0,3.0,79,0.00,,,0.00,Wunderground v.1.15,2013-10-22 11:10:00,
2013-10-22 07:20:00,46.7,40.5,29.48,SSW,198,2.0,2.0,79,0.00,,,0.00,Wunderground v.1.15,2013-10-22 11:20:00,
2013-10-22 07:30:00,46.7,40.9,29.47,SW,224,3.0,3.0,80,0.00,,,0.00,Wunderground v.1.15,2013-10-22 11:30:00,
2013-10-22 07:35:00,46.7,40.9,29.48,WSW,246,4.0,4.0,80,0.00,,,0.00,Wunderground v.1.15,2013-10-22 11:35:00,
2013-10-22 07:45:00,46.6,41.1,29.47,South,188,4.0,7.0,81,0.00,,,0.00,Wunderground v.1.15,2013-10-22 11:45:00,
2013-10-22 07:50:00,46.6,41.1,29.48,SSE,166,4.0,4.0,81,0.00,,,0.00,Wunderground v.1.15,2013-10-22 11:50:00,
2013-10-22 08:00:00,46.6,41.4,29.47,South,169,4.0,4.0,82,0.00,,,0.00,Wunderground v.1.15,2013-10-22 12:00:00,
2013-10-22 08:05:00,46.5,41.3,29.47,SSW,196,5.0,5.0,82,0.00,,,0.00,Wunderground v.1.15,2013-10-22 12:05:00,
2013-10-22 08:10:00,46.5,41.3,29.47,SSW,200,6.0,7.0,82,0.00,,,0.00,Wunderground v.1.15,2013-10-22 12:10:00,
2013-10-22 08:20:00,46.5,41.3,29.47,SW,216,5.0,6.0,82,0.00,,,0.00,Wunderground v.1.15,2013-10-22 12:20:00,
2013-10-22 08:25:00,46.6,41.4,29.47,SSW,192,5.0,6.0,82,0.00,,,0.00,Wunderground v.1.15,2013-10-22 12:25:00,
2013-10-22 08:30:00,46.5,41.6,29.47,South,191,5.0,6.0,83,0.00,,,0.00,Wunderground v.1.15,2013-10-22 12:30:00,
2013-10-22 08:35:00,46.6,41.7,29.47,SSW,208,4.0,6.0,83,0.00,,,0.00,Wunderground v.1.15,2013-10-22 12:35:00,
2013-10-22 08:40:00,46.5,41.9,29.47,South,179,5.0,5.0,84,0.00,,,0.00,Wunderground v.1.15,2013-10-22 12:40:00,
2013-10-22 08:50:00,46.3,42.3,29.46,South,170,4.0,11.0,86,0.00,,,0.00,Wunderground v.1.15,2013-10-22 12:50:00,
2013-10-22 09:00:00,46.1,42.1,29.45,South,186,5.0,5.0,86,0.00,,,0.00,Wunderground v.1.15,2013-10-22 13:00:00,
2013-10-22 09:05:00,46.1,41.8,29.46,SSW,211,4.0,5.0,85,0.00,,,0.00,Wunderground v.1.15,2013-10-22 13:05:00,
2013-10-22 09:10:00,46.2,42.2,29.46,SSW,203,4.0,4.0,86,0.00,,,0.00,Wunderground v.1.15,2013-10-22 13:10:00,
2013-10-22 09:15:00,46.2,42.2,29.46,South,182,4.0,5.0,86,0.00,,,0.00,Wunderground v.1.15,2013-10-22 13:15:00,
2013-10-22 09:25:00,46.4,42.4,29.46,SSW,193,5.0,7.0,86,0.00,,,0.00,Wunderground v.1.15,2013-10-22 13:25:00,
2013-10-22 09:35:00,46.4,42.7,29.45,SW,214,6.0,8.0,87,0.00,,,0.00,Wunderground v.1.15,2013-10-22 13:35:00,
2013-10-22 09:45:00,46.4,42.7,29.44,SSW,196,8.0,13.0,87,0.00,,,0.00,Wunderground v.1.15,2013-10-22 13:45:00,
2013-10-22 09:50:00,46.4,43.0,29.44,South,184,9.0,9.0,88,0.00,,,0.00,Wunderground v.1.15,2013-10-22 13:50:00,
2013-10-22 10:00:00,46.3,42.9,29.44,South,177,9.0,10.0,88,0.00,,,0.00,Wunderground v.1.15,2013-10-22 14:00:00,
2013-10-22 10:05:00,46.3,43.2,29.43,South,175,7.0,10.0,89,0.00,,,0.00,Wunderground v.1.15,2013-10-22 14:05:00,
2013-10-22 10:10:00,46.3,43.2,29.43,SSW,200,7.0,7.0,89,0.00,,,0.00,Wunderground v.1.15,2013-10-22 14:10:00,
2013-10-22 10:20:00,46.5,43.7,29.43,SSW,198,7.0,7.0,90,0.00,,,0.00,Wunderground v.1.15,2013-10-22 14:20:00,
2013-10-22 10:30:00,46.8,44.0,29.42,SSW,200,7.0,8.0,90,0.00,,,0.00,Wunderground v.1.15,2013-10-22 14:30:00,
2013-10-22 10:35:00,47.0,44.5,29.42,South,190,8.0,11.0,91,0.00,,,0.00,Wunderground v.1.15,2013-10-22 14:35:00,
2013-10-22 10:40:00,47.4,44.9,29.41,South,177,8.0,9.0,91,0.00,,,0.00,Wunderground v.1.15,2013-10-22 14:40:00,
2013-10-22 10:50:00,47.7,44.9,29.41,South,169,8.0,9.0,90,0.00,,,0.00,Wunderground v.1.15,2013-10-22 14:50:00,
2013-10-22 10:55:00,47.8,44.7,29.41,South,187,8.0,9.0,89,0.00,,,0.00,Wunderground v.1.15,2013-10-22 14:55:00,
2013-10-22 11:00:00,48.2,45.4,29.40,South,179,8.0,11.0,90,0.00,,,0.00,Wunderground v.1.15,2013-10-22 15:00:00,
2013-10-22 11:05:00,48.6,45.5,29.40,SSW,212,7.0,11.0,89,0.00,,,0.00,Wunderground v.1.15,2013-10-22 15:05:00,
2013-10-22 11:10:00,49.0,46.2,29.40,South,190,6.0,6.0,90,0.00,,,0.00,Wunderground v.1.15,2013-10-22 15:10:00,
2013-10-22 11:15:00,49.2,45.2,29.39,SSW,193,6.0,9.0,86,0.00,,,0.00,Wunderground v.1.15,2013-10-22 15:15:00,
2013-10-22 11:20:00,49.0,45.3,29.40,SW,224,7.0,7.0,87,0.00,,,0.00,Wunderground v.1.15,2013-10-22 15:20:00,
2013-10-22 11:30:00,49.1,45.4,29.40,SSW,201,6.0,7.0,87,0.00,,,0.00,Wunderground v.1.15,2013-10-22 15:30:00,
2013-10-22 11:40:00,49.4,45.4,29.40,SSE,154,4.0,7.0,86,0.00,,,0.00,Wunderground v.1.15,2013-10-22 15:40:00,
2013-10-22 11:45:00,49.3,45.3,29.39,South,182,5.0,9.0,86,0.00,,,0.00,Wunderground v.1.15,2013-10-22 15:45:00,
2013-10-22 11:50:00,49.1,45.1,29.39,SSW,200,7.0,9.0,86,0.00,,,0.00,Wunderground v.1.15,2013-10-22 15:50:00,
2013-10-22 11:55:00,48.9,44.6,29.39,SW,229,8.0,9.0,85,0.00,,,0.00,Wunderground v.1.15,2013-10-22 15:55:00,
2013-10-22 12:00:00,48.7,44.7,29.39,SSW,197,8.0,8.0,86,0.00,,,0.00,Wunderground v.1.15,2013-10-22 16:00:00,
2013-10-22 12:05:00,48.7,45.0,29.39,South,180,7.0,8.0,87,0.00,,,0.00,Wunderground v.1.15,2013-10-22 16:05:00,
2013-10-22 12:10:00,48.6,44.6,29.39,South,188,8.0,12.0,86,0.00,,,0.00,Wunderground v.1.15,2013-10-22 16:10:00,
2013-10-22 12:20:00,48.6,44.9,29.39,South,184,9.0,13.0,87,0.00,,,0.00,Wunderground v.1.15,2013-10-22 16:20:00,
2013-10-22 12:30:00,49.0,45.3,29.38,South,172,7.0,7.0,87,0.00,,,0.00,Wunderground v.1.15,2013-10-22 16:30:00,
2013-10-22 12:40:00,49.2,45.8,29.37,SSE,168,7.0,7.0,88,0.00,,,0.00,Wunderground v.1.15,2013-10-22 16:40:00,
2013-10-22 12:45:00,49.1,45.4,29.37,South,186,7.0,12.0,87,0.00,,,0.00,Wunderground v.1.15,2013-10-22 16:45:00,
2013-10-22 12:50:00,49.1,45.7,29.36,South,173,8.0,8.0,88,0.00,,,0.00,Wunderground v.1.15,2013-10-22 16:50:00,
2013-10-22 13:00:00,49.2,46.1,29.35,South,169,8.0,8.0,89,0.00,,,0.00,Wunderground v.1.15,2013-10-22 17:00:00,
2013-10-22 13:05:00,49.6,46.5,29.35,SSW,195,7.0,8.0,89,0.00,,,0.00,Wunderground v.1.15,2013-10-22 17:05:00,
2013-10-22 13:10:00,49.9,46.5,29.35,South,175,7.0,7.0,88,0.00,,,0.00,Wunderground v.1.15,2013-10-22 17:10:00,
2013-10-22 13:20:00,50.0,46.3,29.35,South,187,6.0,6.0,87,0.00,,,0.00,Wunderground v.1.15,2013-10-22 17:20:00,
2013-10-22 13:25:00,50.0,46.6,29.35,South,171,6.0,7.0,88,0.00,,,0.00,Wunderground v.1.15,2013-10-22 17:25:00,
2013-10-22 13:30:00,50.2,46.5,29.35,South,174,6.0,6.0,87,0.00,,,0.00,Wunderground v.1.15,2013-10-22 17:30:00,
2013-10-22 13:40:00,50.9,46.9,29.34,South,184,6.0,8.0,86,0.00,,,0.00,Wunderground v.1.15,2013-10-22 17:40:00,
2013-10-22 13:50:00,51.1,46.4,29.34,SSW,197,7.0,7.0,84,0.00,,,0.00,Wunderground v.1.15,2013-10-22 17:50:00,
2013-10-22 13:55:00,51.0,46.0,29.34,South,182,7.0,8.0,83,0.00,,,0.00,Wunderground v.1.15,2013-10-22 17:55:00,
2013-10-22 14:00:00,51.1,46.1,29.34,South,170,8.0,9.0,83,0.00,,,0.00,Wunderground v.1.15,2013-10-22 18:00:00,
2013-10-22 14:10:00,51.0,46.3,29.34,South,178,6.0,6.0,84,0.00,,,0.00,Wunderground v.1.15,2013-10-22 18:10:00,
2013-10-22 14:20:00,51.1,46.1,29.34,SSW,205,5.0,7.0,83,0.00,,,0.00,Wunderground v.1.15,2013-10-22 18:20:00,
2013-10-22 14:30:00,51.0,46.3,29.33,South,174,5.0,6.0,84,0.00,,,0.00,Wunderground v.1.15,2013-10-22 18:30:00,
2013-10-22 14:40:00,51.3,45.7,29.33,SW,217,5.0,8.0,81,0.00,,,0.00,Wunderground v.1.15,2013-10-22 18:40:00,
2013-10-22 14:45:00,51.5,45.5,29.34,SSW,207,5.0,16.0,80,0.00,,,0.00,Wunderground v.1.15,2013-10-22 18:45:00,
2013-10-22 14:50:00,51.6,45.0,29.34,WSW,248,8.0,8.0,78,0.00,,,0.00,Wunderground v.1.15,2013-10-22 18:50:00,
2013-10-22 14:55:00,51.4,45.4,29.34,SSW,209,8.0,8.0,80,0.00,,,0.01,Wunderground v.1.15,2013-10-22 18:55:00,
2013-10-22 15:00:00,50.9,45.6,29.35,WSW,258,7.0,7.0,82,0.00,,,0.01,Wunderground v.1.15,2013-10-22 19:00:00,
2013-10-22 15:05:00,50.4,45.4,29.35,West,274,7.0,7.0,83,0.00,,,0.01,Wunderground v.1.15,2013-10-22 19:05:00,
2013-10-22 15:15:00,49.7,45.4,29.36,NW,318,8.0,12.0,85,0.00,,,0.01,Wunderground v.1.15,2013-10-22 19:15:00,
2013-10-22 15:20:00,49.2,45.2,29.36,NW,318,9.0,9.0,86,0.00,,,0.01,Wunderground v.1.15,2013-10-22 19:20:00,
2013-10-22 15:30:00,47.2,43.5,29.37,NW,313,7.0,7.0,87,0.00,,,0.01,Wunderground v.1.15,2013-10-22 19:30:00,
2013-10-22 15:40:00,47.1,43.1,29.37,WNW,298,6.0,6.0,86,0.00,,,0.01,Wunderground v.1.15,2013-10-22 19:40:00,
2013-10-22 15:45:00,47.2,43.2,29.37,WNW,294,6.0,10.0,86,0.00,,,0.01,Wunderground v.1.15,2013-10-22 19:45:00,
2013-10-22 15:50:00,47.0,42.7,29.37,WNW,284,7.0,7.0,85,0.00,,,0.01,Wunderground v.1.15,2013-10-22 19:50:00,
2013-10-22 16:05:00,47.3,42.7,29.38,West,263,8.0,8.0,84,0.00,,,0.01,Wunderground v.1.15,2013-10-22 20:05:00,
2013-10-22 16:10:00,47.7,43.1,29.38,SW,236,7.0,7.0,84,0.00,,,0.01,Wunderground v.1.15,2013-10-22 20:10:00,
2013-10-22 16:15:00,48.0,43.1,29.37,West,259,7.0,7.0,83,0.00,,,0.01,Wunderground v.1.15,2013-10-22 20:15:00,
2013-10-22 16:20:00,48.2,42.6,29.37,West,270,6.0,11.0,81,0.00,,,0.01,Wunderground v.1.15,2013-10-22 20:20:00,
2013-10-22 16:25:00,47.8,42.6,29.38,WNW,286,6.0,11.0,82,0.00,,,0.01,Wunderground v.1.15,2013-10-22 20:25:00,
2013-10-22 16:30:00,47.6,42.7,29.38,WNW,286,6.0,6.0,83,0.00,,,0.01,Wunderground v.1.15,2013-10-22 20:30:00,
2013-10-22 16:40:00,47.6,41.7,29.38,West,266,5.0,5.0,80,0.00,,,0.01,Wunderground v.1.15,2013-10-22 20:40:00,
2013-10-22 16:45:00,47.6,42.4,29.39,West,279,5.0,5.0,82,0.00,,,0.01,Wunderground v.1.15,2013-10-22 20:45:00,
2013-10-22 16:50:00,47.5,42.3,29.38,West,277,4.0,6.0,82,0.00,,,0.01,Wunderground v.1.15,2013-10-22 20:50:00,
2013-10-22 16:55:00,47.6,42.1,29.39,West,264,4.0,6.0,81,0.00,,,0.01,Wunderground v.1.15,2013-10-22 20:55:00,
2013-10-22 17:00:00,47.4,41.5,29.39,West,270,5.0,5.0,80,0.00,,,0.01,Wunderground v.1.15,2013-10-22 21:00:00,
2013-10-22 17:05:00,47.2,41.7,29.39,WNW,288,4.0,5.0,81,0.00,,,0.01,Wunderground v.1.15,2013-10-22 21:05:00,
2013-10-22 17:10:00,47.0,41.5,29.40,WNW,285,4.0,4.0,81,0.00,,,0.01,Wunderground v.1.15,2013-10-22 21:10:00,
2013-10-22 17:15:00,47.0,41.5,29.40,WNW,289,3.0,4.0,81,0.00,,,0.01,Wunderground v.1.15,2013-10-22 21:15:00,
2013-10-22 17:25:00,46.7,40.9,29.40,WNW,286,5.0,5.0,80,0.00,,,0.01,Wunderground v.1.15,2013-10-22 21:25:00,
2013-10-22 17:30:00,46.5,40.7,29.40,WNW,299,5.0,5.0,80,0.00,,,0.01,Wunderground v.1.15,2013-10-22 21:30:00,
2013-10-22 17:40:00,46.1,41.2,29.40,West,275,3.0,6.0,83,0.00,,,0.01,Wunderground v.1.15,2013-10-22 21:40:00,
2013-10-22 17:50:00,45.6,41.0,29.41,NW,307,4.0,4.0,84,0.00,,,0.01,Wunderground v.1.15,2013-10-22 21:50:00,
2013-10-22 18:00:00,45.1,40.6,29.41,NW,315,2.0,2.0,84,0.00,,,0.01,Wunderground v.1.15,2013-10-22 22:00:00,
2013-10-22 18:05:00,44.8,40.3,29.41,NW,315,1.0,2.0,84,0.00,,,0.01,Wunderground v.1.15,2013-10-22 22:05:00,
2013-10-22 18:10:00,44.4,40.2,29.41,NW,315,0.0,2.0,85,0.00,,,0.01,Wunderground v.1.15,2013-10-22 22:10:00,
2013-10-22 18:15:00,44.1,39.9,29.41,NW,313,1.0,2.0,85,0.00,,,0.01,Wunderground v.1.15,2013-10-22 22:15:00,
2013-10-22 18:25:00,43.6,39.4,29.41,NW,313,2.0,2.0,85,0.00,,,0.01,Wunderground v.1.15,2013-10-22 22:25:00,
2013-10-22 18:30:00,43.4,39.5,29.41,NW,313,2.0,2.0,86,0.00,,,0.01,Wunderground v.1.15,2013-10-22 22:30:00,
2013-10-22 18:40:00,43.2,39.3,29.41,NW,313,1.0,1.0,86,0.00,,,0.01,Wunderground v.1.15,2013-10-22 22:40:00,
2013-10-22 18:50:00,42.7,38.8,29.42,NW,313,1.0,2.0,86,0.00,,,0.01,Wunderground v.1.15,2013-10-22 22:50:00,
2013-10-22 19:00:00,42.6,38.4,29.42,NW,313,1.0,1.0,85,0.00,,,0.01,Wunderground v.1.15,2013-10-22 23:00:00,
2013-10-22 19:10:00,42.2,38.3,29.42,NW,313,0.0,0.0,86,0.00,,,0.01,Wunderground v.1.15,2013-10-22 23:10:00,
2013-10-22 19:20:00,41.9,38.0,29.42,NW,313,0.0,0.0,86,0.00,,,0.01,Wunderground v.1.15,2013-10-22 23:20:00,
2013-10-22 19:25:00,41.8,37.9,29.42,NW,313,0.0,1.0,86,0.00,,,0.01,Wunderground v.1.15,2013-10-22 23:25:00,
2013-10-22 19:35:00,40.5,37.2,29.42,NW,313,1.0,3.0,88,0.00,,,0.01,Wunderground v.1.15,2013-10-22 23:35:00,
2013-10-22 19:40:00,40.3,37.3,29.42,NW,313,1.0,1.0,89,0.00,,,0.01,Wunderground v.1.15,2013-10-22 23:40:00,
2013-10-22 19:50:00,40.9,37.3,29.42,NW,313,0.0,2.0,87,0.00,,,0.01,Wunderground v.1.15,2013-10-22 23:50:00,
2013-10-22 20:00:00,41.5,36.7,29.43,NW,313,1.0,2.0,83,0.00,,,0.01,Wunderground v.1.15,2013-10-23 00:00:00,
2013-10-22 20:10:00,42.3,36.6,29.43,NW,324,3.0,3.0,80,0.00,,,0.01,Wunderground v.1.15,2013-10-23 00:10:00,
2013-10-22 20:20:00,43.2,34.8,29.43,NW,319,7.0,9.0,72,0.00,,,0.01,Wunderground v.1.15,2013-10-23 00:20:00,
2013-10-22 20:30:00,43.3,32.7,29.43,WNW,301,5.0,5.0,66,0.00,,,0.01,Wunderground v.1.15,2013-10-23 00:30:00,
2013-10-22 20:40:00,43.0,32.4,29.43,West,281,4.0,5.0,66,0.00,,,0.01,Wunderground v.1.15,2013-10-23 00:40:00,
2013-10-22 20:45:00,42.7,32.1,29.44,West,263,5.0,7.0,66,0.00,,,0.01,Wunderground v.1.15,2013-10-23 00:45:00,
2013-10-22 20:50:00,42.5,31.9,29.44,WSW,244,5.0,9.0,66,0.00,,,0.01,Wunderground v.1.15,2013-10-23 00:50:00,
2013-10-22 21:00:00,42.2,31.3,29.44,West,264,6.0,6.0,65,0.00,,,0.01,Wunderground v.1.15,2013-10-23 01:00:00,
2013-10-22 21:10:00,41.9,31.0,29.44,WNW,285,8.0,8.0,65,0.00,,,0.01,Wunderground v.1.15,2013-10-23 01:10:00,
2013-10-22 21:20:00,41.5,30.2,29.45,WNW,290,7.0,7.0,64,0.00,,,0.01,Wunderground v.1.15,2013-10-23 01:20:00,
2013-10-22 21:30:00,41.2,29.5,29.45,West,261,7.0,7.0,63,0.00,,,0.01,Wunderground v.1.15,2013-10-23 01:30:00,
2013-10-22 21:40:00,41.1,29.1,29.45,West,279,6.0,6.0,62,0.00,,,0.01,Wunderground v.1.15,2013-10-23 01:40:00,
2013-10-22 21:45:00,41.0,29.0,29.45,West,261,7.0,8.0,62,0.00,,,0.01,Wunderground v.1.15,2013-10-23 01:45:00,
2013-10-22 21:50:00,40.8,28.8,29.45,NW,311,5.0,5.0,62,0.00,,,0.01,Wunderground v.1.15,2013-10-23 01:50:00,
2013-10-22 22:00:00,40.5,28.9,29.45,WNW,284,5.0,6.0,63,0.00,,,0.01,Wunderground v.1.15,2013-10-23 02:00:00,
2013-10-22 22:10:00,40.3,28.7,29.46,West,269,5.0,5.0,63,0.00,,,0.01,Wunderground v.1.15,2013-10-23 02:10:00,
2013-10-22 22:15:00,40.2,28.6,29.46,West,271,4.0,5.0,63,0.00,,,0.01,Wunderground v.1.15,2013-10-23 02:15:00,
2013-10-22 22:20:00,40.0,28.4,29.46,WNW,286,3.0,3.0,63,0.00,,,0.01,Wunderground v.1.15,2013-10-23 02:20:00,
2013-10-22 22:30:00,39.5,28.7,29.46,West,269,2.0,2.0,65,0.00,,,0.01,Wunderground v.1.15,2013-10-23 02:30:00,
2013-10-22 22:40:00,38.9,28.5,29.45,West,269,1.0,1.0,66,0.00,,,0.01,Wunderground v.1.15,2013-10-23 02:40:00,
2013-10-22 22:50:00,38.6,28.2,29.45,WNW,288,2.0,2.0,66,0.00,,,0.01,Wunderground v.1.15,2013-10-23 02:50:00,
2013-10-22 23:00:00,38.2,28.6,29.45,WNW,287,1.0,1.0,68,0.00,,,0.01,Wunderground v.1.15,2013-10-23 03:00:00,
2013-10-22 23:10:00,37.7,28.4,29.46,WNW,287,0.0,0.0,69,0.00,,,0.01,Wunderground v.1.15,2013-10-23 03:10:00,
2013-10-22 23:20:00,36.9,28.7,29.45,WNW,287,0.0,0.0,72,0.00,,,0.01,Wunderground v.1.15,2013-10-23 03:20:00,
2013-10-22 23:30:00,36.0,28.8,29.45,WNW,287,0.0,0.0,75,0.00,,,0.01,Wunderground v.1.15,2013-10-23 03:30:00,
2013-10-22 23:40:00,35.3,28.5,29.45,WNW,287,0.0,2.0,76,0.00,,,0.01,Wunderground v.1.15,2013-10-23 03:40:00,
2013-10-22 23:50:00,34.6,28.4,29.45,WNW,288,2.0,2.0,78,0.00,,,0.01,Wunderground v.1.15,2013-10-23 03:50:00,